Regional Weather Roundup
Issued by NWS

Home | Current Version | Previous Version | Text Only | Print | Product List | Glossary On
Versions: 1 2 3 4 5 6 7 8 9 10 11 12 13 14 15 16 17 18 19 20 21 22 23 24 25 26 27 28 29 30 31 32 33 34 35 36 37 38 39 40 41 42 43 44 45 46 47 48 49 50
000
ASUS44 KLUB 011410
RWRTX
WEST TEXAS WEATHER ROUNDUP
NATIONAL WEATHER SERVICE LUBBOCK TX
900 AM CDT SAT OCT 01 2016

NOTE: "FAIR" INDICATES FEW OR NO CLOUDS BELOW 12,000 FEET WITH NO
SIGNIFICANT WEATHER AND/OR OBSTRUCTIONS TO VISIBILITY.

TXZ004-006>008-010-012-014-016-OKZ002-011500-
TEXAS PANHANDLE/OKLAHOMA PANHANDLE

CITY           SKY/WX    TMP DP  RH WIND       PRES   REMARKS
AMARILLO       SUNNY     59  51  75 S6        30.12R
BORGER         SUNNY     60  51  72 S9        30.10S
CANADIAN       SUNNY     64  52  64 S9        30.08S
DALHART        SUNNY     57  49  74 CALM      30.12S
DUMAS          SUNNY     57  52  81 S10       30.11R
GUYMON         CLOUDY    58  49  72 SW6       30.08R
HEREFORD       SUNNY     62  55  76 S6        30.13R
PAMPA          SUNNY     62  52  70 S12       30.11S
PERRYTON       SUNNY     63  52  68 S10       30.08R
$$

TXZ026-029-035-045-048-011500-
SOUTHERN PANHANDLE/SOUTH PLAINS/ROLLING PLAINS

CITY           SKY/WX    TMP DP  RH WIND       PRES   REMARKS
CHILDRESS      CLOUDY    62  53  72 SE10      30.11R
SEMINOLE       PTSUNNY   59  54  83 CALM      30.15R
LUBBOCK        MOSUNNY   63  54  72 S10       30.12R
PLAINVIEW      CLOUDY    61  53  75 S9        30.11S
SNYDER           N/A     64  52  64 S8        30.13R
$$

TXZ052-054-060>062-072-078-127-140-154-169-011500-
PERMIAN BASIN/CONCHO VALLEY/BIG COUNTRY/EDWARDS PLATEAU

CITY           SKY/WX    TMP DP  RH WIND       PRES   REMARKS
ABILENE        PTSUNNY   61  54  77 SE5       30.13R
BIG SPRING     CLOUDY    64  55  71 SE6       30.15R
BROWNWOOD      MOSUNNY   61  57  88 CALM      30.13R
JUNCTION       CLOUDY    62  57  83 CALM      30.14R
MIDLAND        SUNNY     64  55  72 SE7       30.12R
ODESSA         MOSUNNY   65  55  70 SE9       30.13R
SAN ANGELO     MOSUNNY   61  57  87 CALM      30.12R
SONORA         CLOUDY    64  57  77 SE3       30.17S
SWEETWATER     SUNNY     67  51  56 S9        30.15R
WINK           SUNNY     65  55  70 SE9       30.09R
$$

TXZ055-058-074-075-080-082-011500-
FAR WEST/SOUTHWEST MOUNTAINS/TRANS PECOS

CITY           SKY/WX    TMP DP  RH WIND       PRES   REMARKS
ALPINE         PTSUNNY   65  58  78 SW8       30.24S
DRYDEN           N/A     65  61  87 VRB6      30.10R
EL PASO        MOSUNNY   65  59  81 S5        30.16R
FORT STOCKTON  SUNNY     64  59  83 S6        30.11R
GUADALUPE PASS FOG       58  58 100 W17       30.23R VSB<1/4
MARFA          CLOUDY    57  56  96 MISG      30.23R FOG
PECOS          SUNNY     62  59  89 CALM      30.10R
PRESIDIO       FAIR      69  63  80 CALM      30.13R
$$

TXZ014-016-019-021>030-083-011500
TEXAS TECH WEST TEXAS MESONET/TEXAS PANHANDLE/NORTHERN SOUTH PLAINS

CITY           SKY/WX    TMP DP  RH WIND       PRES   REMARKS
ABERNATHY 5ENE   N/A     63  54  74 S10       30.15S
AMARILLO 9NNE    N/A     63  53  70 S13       30.11F
AMARILLO 7SSE    N/A     60  52  74 S10       30.14S
AMHERST 1NE      N/A     61  54  77 S10       30.13S
BOOTLEG 11WNW    N/A     56  52  85 SW9       30.16R
CANADIAN 6E      N/A     64  51  61 SE9       30.09R
CAPROCK CYN SP   N/A     65  55  69 SE5       30.12S
CHILDRESS 2NNE   N/A     63  53  71 SE10      30.12R
CLARENDON 2WSW   N/A     61  51  70 E5        30.13S
CLAUDE 12SW      N/A     60  51  73 S7        30.13S
DIMMITT 2NE      N/A     59  53  80 S14       30.13S
FLOYDADA 2NNE    N/A     62  53  73 S8        30.12S
FRIONA 2NE       N/A     58  53  82 S12       30.14S
GOODLETT 3W      N/A     62  54  74 E6        30.10S
HART 3N          N/A     60  53  77 S9        30.13F
HEREFORD 2NW     N/A     59  51  75 S7        30.15R
MCLEAN 1E        N/A     62  50  65 S10       30.12S
MEMPHIS 1NE      N/A     62  54  74 E3        30.12R
MULESHOE 2SSW    N/A     61  54  77 S15       30.13R
OLTON 6S         N/A     60  53  77 S10       30.13S
PALO DURO SP     N/A     62  51  66 S7        30.14S
PAMPA 2E         N/A     59  51  75 S12       30.12S
PLAINVIEW 1S     N/A     63  55  74 S12       30.13S
SILVERTON 7ESE   N/A     64  52  66 S9        30.11S
TULIA 2ENE       N/A     62  55  78 S13       30.13S
TURKEY 2WSW      N/A     62  54  76 SE3       30.12R
UMBARGER 3NNE    N/A     59  53  78 S9        30.14S
$$

TXZ033>036-039>041-045>048-011500
TEXAS TECH WEST TEXAS MESONET/SOUTH PLAINS

CITY           SKY/WX    TMP DP  RH WIND       PRES   REMARKS
AIKEN 3WSW       N/A     62  54  75 S13       30.14S
ANDREWS 2NE      N/A     62  54  76 SE7       30.16R
ANTON 6SSW       N/A     62  54  75 S8        30.13S
BROWNFIELD 2S    N/A     60  53  78 S9        30.14F
DENVR CTY 7WNW   N/A     61  54  77 SE7       30.15S
GAIL 2ESE        N/A     65  53  66 S5        30.14R
LAMESA 2SE       N/A     62  55  77 SE3       30.15S
LEVELLAND 4S     N/A     60  53  75 S10       30.14S
LUBBOCK 3WNW     N/A     65  53  64 S9        30.14S
MORTON 1ENE      N/A     61  54  76 S8        30.14S
ODONNELL 1N      N/A     63  51  64 SE6       30.14S
PLAINS 3N        N/A     62  54  75 S7        30.15S
RALLS 1SE        N/A     59  51  76 S9        30.14S
REESE CENTER     N/A     62  53  72 S13       30.14S
SEAGRAVES 1SW    N/A     60  54  80 SE6       30.15S
SEMINOLE 2NNE    N/A     59  53  79 SE5       30.15R
SLATON 2NE       N/A     64  54  69 S8        30.14S
SNYDER 3E        N/A     68  53  59 S8        30.13S
SUNDOWN 8SW      N/A     62  55  75 S12       30.14S
TAHOKA 3NNE      N/A     64  55  70 S9        30.14S
WOLFFORTH 6SSW   N/A     62  53  73 S9        30.14S
$$

TXZ031-032-036>038-042>044-011500-
TEXAS TECH WEST TEXAS MESONET/ROLLING PLAINS

CITY           SKY/WX    TMP DP  RH WIND       PRES   REMARKS
ASPERMONT 3NE    N/A     66  55  67 S3        30.12R
FLUVANNA 3WNW    N/A     64  51  62 S10       30.14R
GRAHAM 5SSW      N/A     63  52  67 SE7       30.14S
GUTHRIE 10WSW    N/A     63  55  76 CALM      30.11R
HASKELL 1NW      N/A     64  51  62 SE7       30.11S
JAYTON 1SSE      N/A     67  54  64 S5        30.11S
KNOX CITY 3NW    N/A     66  53  62 S5        30.11S
LK A HENRY 1NW   N/A     67  51  57 S5        30.12S
NORTHFIELD 1S    N/A     63  56  79 E6        30.11R
ODELL 4ENE       N/A     61  56  82 SE7       30.12S
PADUCAH 10SW     N/A     61  55  82 SE6       30.11S
POST 1NE         N/A     66  51  58 S8        30.12S
RRING SPRGS 3N   N/A     62  56  79 S8        30.12R
SEYMOUR 3NW      N/A     64  53  68 SE5       30.11S
SPUR 1W          N/A     62  55  76 S3        30.12R
WHITE RVR 6NE    N/A     63  54  71 SE6       30.13R
$$

TXZ052-054-060>062-072-078-127-140-154-169-011500-
TEXAS TECH WEST TEXAS MESONET/PERMIAN BASIN/
CONCHO VALLEY/BIG COUNTRY/EDWARDS PLATEAU

CITY           SKY/WX    TMP DP  RH WIND       PRES   REMARKS
COYANOSA 2N      N/A     68  59  73 SE8       30.11R
JUNCTION 1SSW    N/A     62  57  85 E1        30.16R
MERTZON 3NNE     N/A     61  58  92 S1        30.15S
SAN ANGELO 7NW   N/A     63  56  78 E3        30.14R
STRLNG CT 4WSW   N/A     65  57  74 CALM      30.15R
ST LAWRNCE 5SW   N/A     67  57  71 SE9       30.15R
WALL 1E          N/A     60  56  84 CALM      30.15S
$$

TXZ055-058-074-075-080-082-011500-
TEXAS TECH WEST TEXAS MESONET/FAR WEST/SOUTHWEST MOUNTAINS/TRANS PECOS

CITY           SKY/WX    TMP DP  RH WIND       PRES   REMARKS
PRSMN GAP BBNP   N/A     68  59  72 SE2       30.14S
$$




USA.gov is the U.S. government's official web portal to all federal, state and local government web resources and services.